Probability
0 0 0 0 0 0 0 0 0 0 0 0 0 1 1 1 0 1 2 3 3 3 4 4 4 3 4 3 2 2 2 2 4 5 5 4 3 2 1 1 2 3 4
0 0 0 0 0 0 0 0 0 0 1 1 1 2 2 2 1 0 1 2 2 2 3 3 2 2 2 2 1 2 3 4 5 5 5 5 4 3 2 1 1 3 4
0 0 0 0 0 0 0 0 0 0 1 2 2 2 3 3 1 0 0 1 1 1 1 2 2 1 1 2 3 3 4 6 6 5 5 5 5 4 3 2 1 2 3
0 0 0 0 0 0 0 0 0 0 1 1 1 1 2 2 1 0 0 1 1 1 1 2 3 3 4 6 7 6 6 8 7 5 5 6 5 5 4 3 3 3 3
0 0 0 0 0 0 0 0 0 0 0 0 0 0 1 1 1 0 0 0 1 1 2 2 4 6 8 9 9 8 7 7 6 6 7 7 7 6 5 4 3 3 3
0 0 0 0 0 0 0 0 0 0 0 0 0 0 0 0 0 0 0 0 0 1 1 2 4 6 7 8 9 8 7 7 6 7 7 8 8 8 7 5 4 3 3
0 0 0 0 0 0 0 0 0 0 0 0 0 0 0 0 0 0 0 0 0 0 0 1 1 3 4 5 6 8 8 8 7 8 8 9 8 7 7 5 4 3 4
0 0 0 0 0 0 0 0 0 0 0 0 0 0 0 0 0 0 0 0 0 0 0 0 0 0 1 2 3 5 8 8 8 8 10 11 9 6 5 4 4 4 5
0 0 0 0 0 0 0 0 0 0 1 1 1 1 1 1 1 0 0 1 1 1 0 0 0 0 0 1 1 3 5 7 7 8 11 14 13 8 6 5 4 4 4
0 0 0 0 0 0 0 0 0 1 2 3 2 2 2 2 2 1 1 2 2 2 1 0 0 0 0 0 0 1 3 5 5 7 10 14 15 13 9 5 4 4 5
0 0 0 0 0 0 0 0 0 1 2 3 3 3 3 3 3 3 3 3 3 2 1 0 0 0 0 0 0 1 3 4 6 7 9 11 13 13 10 7 5 6 8
0 0 0 1 1 0 0 0 0 0 1 1 2 3 3 3 2 2 2 2 1 1 0 0 0 0 0 0 1 2 3 5 6 8 8 9 10 10 10 9 9 8 9
0 0 0 2 2 1 0 1 1 1 1 1 1 2 2 1 1 1 1 1 1 0 1 1 0 0 0 0 1 3 4 5 5 6 7 7 7 8 10 12 12 10 9
0 0 0 1 1 1 1 2 2 2 1 1 1 1 1 1 1 1 1 2 2 2 2 2 1 0 0 1 2 3 5 5 5 5 4 5 5 6 8 10 10 9 8
0 0 0 1 1 2 2 2 1 1 1 0 0 0 0 1 2 2 2 2 3 3 3 3 2 0 0 1 2 4 6 7 6 4 3 2 2 3 4 4 4 4 4
2 1 2 2 2 2 2 1 0 0 0 0 0 0 0 1 1 1 1 1 2 2 2 2 1 0 1 1 2 5 7 7 6 4 1 0 0 1 1 1 0 1 1
5 4 4 3 2 3 3 2 0 0 0 0 0 0 0 0 0 0 0 0 1 1 1 1 0 1 2 3 5 7 8 8 6 3 1 0 0 0 0 0 0 0 0
6 6 6 5 4 4 5 4 2 1 1 1 1 0 0 0 0 1 1 1 1 1 2 1 1 2 3 4 7 10 11 9 6 3 1 1 1 1 0 0 0 0 0
5 6 7 7 6 6 6 6 4 3 2 2 2 1 1 1 1 2 2 2 3 4 4 3 2 3 4 5 7 11 12 11 8 5 3 3 3 2 1 0 0 0 0
6 7 9 9 8 8 7 7 5 4 3 3 3 3 4 4 4 4 3 3 4 5 6 5 4 4 4 5 8 11 12 11 10 8 6 5 4 4 3 1 0 0 0
7 8 9 9 9 8 7 7 6 5 4 3 4 5 6 5 5 4 4 3 4 6 8 8 6 5 5 6 9 12 14 13 12 10 8 6 5 5 5 3 1 0 0
6 6 6 7 7 6 5 5 6 7 6 4 4 6 6 6 5 5 5 4 5 6 8 9 8 6 7 9 11 13 15 15 14 12 9 7 6 6 6 4 1 0 0
4 4 4 4 4 4 3 3 3 5 6 6 6 7 7 7 7 7 7 6 6 6 7 9 9 9 9 11 12 13 15 15 14 11 8 7 6 6 6 4 2 0 0
3 3 3 3 4 3 2 1 2 3 7 8 9 9 9 8 8 8 8 8 8 8 8 8 9 9 9 10 11 13 14 13 10 8 7 7 6 6 6 5 3 1 0
4 4 5 6 6 5 2 1 2 5 8 9 10 10 9 7 6 5 6 6 7 7 7 7 8 8 7 7 8 10 12 10 7 6 7 8 7 6 6 6 5 3 2
5 6 7 8 8 6 3 1 3 6 9 10 10 10 8 5 3 2 4 4 5 6 7 7 8 7 6 5 5 8 10 9 7 6 7 8 8 7 6 6 6 5 3
Wind_Speed
2 3 2 2 3 2 3 3 3 4 3 3 2 2 1 1 1 0 0 0 0 1 2 2 4 5 6 6 6 5 6 7 7 6 6 7 8 7 7 7 7 8 8
2 2 2 2 2 2 2 2 3 3 2 2 2 2 1 1 0 1 1 1 1 1 2 2 3 4 5 6 6 7 7 7 7 7 6 6 7 7 7 7 7 7 7
2 2 2 2 2 2 2 2 3 3 2 2 2 2 1 1 1 1 1 1 1 1 2 2 2 3 4 5 6 7 7 7 6 6 6 6 7 7 6 7 7 7 7
2 2 2 1 1 2 2 2 2 2 2 2 2 1 1 1 1 1 1 1 1 1 2 2 2 2 3 4 5 5 6 6 6 5 6 6 6 7 7 7 7 7 7
2 2 2 1 1 2 2 1 2 2 2 2 1 1 1 1 1 1 1 1 1 1 1 2 3 3 3 4 4 4 4 5 5 5 5 5 5 6 6 6 6 6 8
2 2 2 1 2 2 2 1 1 1 1 1 2 2 2 1 1 1 1 1 1 1 1 2 2 2 3 3 3 3 4 4 4 4 4 4 5 5 5 6 6 6 7
2 2 2 1 1 1 1 2 2 2 1 1 2 2 2 2 2 1 1 1 1 2 1 1 1 1 1 3 3 3 4 4 4 4 4 5 5 4 4 5 5 5 5
1 1 1 1 1 1 1 1 2 1 0 1 1 1 2 3 3 2 1 1 2 1 2 2 1 1 2 1 2 3 4 4 4 4 4 4 5 5 5 6 5 5 5
1 1 1 1 1 1 1 1 2 2 1 0 1 2 1 1 2 2 2 1 2 1 2 2 2 2 2 2 2 3 4 4 5 5 5 5 5 5 6 6 6 6 6
1 0 1 1 1 1 1 2 2 2 2 1 0 1 1 2 1 2 2 2 2 2 2 2 2 2 2 2 2 3 4 5 5 6 6 6 5 5 6 7 7 7 7
1 1 1 1 1 1 1 1 1 1 1 2 1 1 1 1 1 1 2 3 2 2 2 2 2 2 2 2 2 2 3 3 4 5 6 5 5 5 5 6 6 7 7
1 1 0 0 1 1 1 1 1 1 1 1 1 1 2 2 2 2 2 2 2 3 2 2 1 2 1 2 2 3 3 3 3 4 4 4 5 5 5 5 5 6 6
1 2 1 0 1 1 1 1 1 1 1 1 1 1 1 2 2 2 2 1 2 2 2 2 2 2 2 1 2 3 3 3 2 3 3 4 4 4 5 5 5 5 5
2 1 1 1 1 1 1 1 1 1 1 1 1 1 1 1 2 2 2 2 1 2 2 3 2 2 2 2 2 3 2 3 2 2 3 3 3 3 3 3 3 3 4
1 1 1 1 0 1 1 1 1 1 1 1 1 1 1 1 1 2 2 2 2 2 3 2 2 2 2 2 2 2 2 3 3 3 2 2 2 2 2 2 2 2 2
1 0 0 0 0 1 1 1 1 1 1 1 1 1 1 1 1 1 2 2 2 2 3 2 2 2 2 2 2 2 2 3 3 3 2 1 1 2 2 2 2 2 2
1 1 1 1 0 0 1 1 1 1 1 1 1 1 1 1 1 1 1 1 2 2 3 3 2 2 2 3 2 2 2 2 2 3 3 3 2 2 3 3 3 3 3
1 1 1 1 1 1 1 1 2 2 2 2 2 2 2 1 1 1 1 2 2 2 3 3 2 2 2 3 2 2 2 2 2 3 4 4 3 3 3 3 3 3 3
1 1 1 1 2 2 1 2 2 2 2 3 2 2 3 2 2 2 2 2 2 2 2 3 3 1 2 2 2 2 2 2 2 2 3 3 3 3 2 3 3 4 4
1 1 1 2 2 2 2 2 2 2 2 2 2 3 3 3 4 4 3 3 2 2 2 2 3 2 2 2 1 2 2 2 2 2 2 2 3 3 4 4 4 4 4
1 1 1 1 1 1 2 2 3 3 2 2 3 3 4 3 4 3 3 3 3 3 2 3 3 2 2 2 2 1 2 2 3 2 2 2 2 2 2 3 4 4 3
1 1 1 1 2 2 3 3 2 2 2 2 3 3 4 4 4 5 5 4 4 4 4 3 3 4 4 3 2 2 2 2 2 1 1 2 2 3 3 2 3 4 3
1 1 2 2 2 3 3 3 2 2 2 2 3 3 3 3 3 4 4 4 4 5 5 5 5 6 5 4 3 3 3 3 3 1 1 3 2 3 3 2 4 4 4
1 2 2 2 2 3 3 3 2 2 2 2 3 3 4 4 3 3 3 3 4 4 5 5 5 6 5 4 5 4 4 3 3 2 2 3 2 3 3 3 4 4 5
1 2 2 2 2 3 3 3 2 1 2 3 3 3 3 3 4 3 2 3 4 4 4 4 4 4 5 4 3 2 2 2 3 3 2 2 2 2 3 3 3 4 5
2 1 1 1 1 2 3 3 2 1 2 2 3 3 3 3 4 2 2 3 4 5 3 3 3 3 3 3 3 4 4 3 2 3 2 2 2 2 2 2 2 2 3
Wind_Direction
57 52 49 52 51 54 59 63 71 72 72 63 64 84 87 82 50 24 359 14 166 204 207 203 204 205 198 194 197 200 203 208 207 207 213 219 220 219 221 224 225 228 230
81 72 56 49 48 58 67 73 74 74 68 58 41 40 61 64 47 31 357 319 281 245 239 232 216 211 208 205 206 211 211 211 211 211 214 217 221 226 226 229 230 231 228
93 89 77 61 46 56 64 71 64 63 63 58 43 33 42 35 26 19 356 344 323 295 260 239 223 217 213 218 219 218 218 220 225 225 224 220 222 223 223 229 230 233 229
111 105 94 77 55 59 66 76 69 61 53 47 36 25 41 39 9 14 6 348 336 323 304 274 241 231 234 235 235 231 230 228 232 234 227 224 224 222 222 227 231 234 233
114 115 108 96 81 74 68 84 74 75 61 38 31 34 26 19 2 15 13 338 321 308 306 313 289 267 259 252 246 243 237 233 231 234 233 232 232 228 224 226 230 239 237
95 109 114 100 100 93 77 75 81 66 77 51 37 30 15 3 5 10 353 352 337 328 334 314 314 303 289 277 254 244 237 239 240 239 236 236 238 235 232 231 234 239 239
77 100 107 93 99 105 111 111 107 83 49 45 48 14 4 12 17 11 12 12 2 356 359 333 310 290 295 282 261 244 241 243 245 244 240 236 233 231 232 231 233 235 236
61 94 116 126 129 125 117 124 131 112 52 56 88 52 358 355 2 11 14 12 352 349 341 328 311 268 272 282 286 263 252 253 257 254 247 245 240 238 241 241 239 236 232
40 73 137 152 165 157 161 171 162 151 169 7 113 130 130 277 320 337 349 359 348 342 323 315 308 289 273 270 272 270 259 255 257 254 251 247 247 245 244 248 245 239 237
13 39 119 151 181 179 183 204 169 163 158 182 176 150 169 172 176 315 327 336 333 327 320 317 313 300 286 279 277 274 266 262 262 260 258 255 254 254 252 255 254 252 246
358 357 87 123 168 180 191 192 161 162 170 176 177 164 140 130 166 185 290 321 332 314 302 295 301 301 295 284 278 282 285 279 277 272 268 266 264 265 265 263 263 261 255
329 328 31 144 180 188 196 196 184 180 188 185 180 169 166 173 188 183 227 274 298 301 300 289 288 293 298 303 298 309 290 286 285 280 275 272 268 266 264 268 266 266 265
283 279 271 211 198 214 204 169 171 208 199 190 189 198 197 205 179 170 181 235 270 291 306 295 280 290 301 314 305 317 313 308 296 281 277 274 272 270 268 266 263 268 272
251 254 240 231 202 186 168 147 167 221 179 196 209 198 209 226 192 182 180 181 256 286 283 283 308 294 308 306 308 314 315 318 300 284 283 288 275 269 273 274 270 272 278
251 237 216 215 190 157 157 150 168 207 174 195 210 212 220 227 204 206 194 186 187 249 275 274 286 298 302 300 300 305 305 313 304 288 280 285 267 260 268 274 283 289 293
253 225 205 180 141 128 145 156 182 202 169 242 220 225 255 246 227 208 199 203 200 207 248 260 259 288 294 298 304 297 292 304 295 282 279 279 275 263 267 271 271 286 291
233 226 219 203 192 180 177 181 209 198 207 261 271 249 271 257 235 222 190 193 201 201 240 270 265 290 288 300 309 302 296 288 295 281 277 268 269 272 273 277 280 278 275
225 221 206 213 231 232 217 214 226 217 217 240 258 258 270 264 250 240 216 226 230 219 224 260 272 279 275 290 297 299 308 301 286 290 284 276 275 275 273 279 279 278 276
219 216 193 219 237 239 235 232 227 229 231 239 243 244 255 250 259 255 242 241 244 240 227 243 267 267 279 301 310 313 313 306 302 299 292 282 279 279 279 271 266 262 259
209 228 225 234 240 242 246 238 229 238 248 258 257 252 250 238 243 247 246 244 242 243 240 249 269 276 276 288 293 301 307 303 299 302 305 303 293 289 282 275 267 265 258
243 244 252 275 268 248 257 250 243 241 245 270 279 269 255 246 242 243 248 242 235 239 242 247 262 271 269 268 265 262 278 291 286 266 285 288 283 280 283 278 272 270 262
281 283 262 266 271 272 284 264 244 246 237 245 266 278 273 264 265 260 259 250 234 233 238 237 249 256 260 257 253 248 258 279 282 262 266 287 269 270 276 275 278 268 257
250 265 256 245 253 268 273 264 245 235 244 248 253 270 280 287 278 272 273 275 264 251 234 228 241 248 249 244 239 247 246 251 254 256 229 272 268 274 279 284 275 259 251
242 248 256 257 262 280 291 280 266 244 252 263 260 258 264 283 289 279 280 283 275 267 256 241 240 247 248 243 228 236 241 251 264 259 221 258 264 270 285 274 265 251 247
247 255 261 253 257 288 295 280 271 259 265 276 275 271 269 279 295 294 275 282 288 289 282 269 254 258 259 250 224 203 214 227 262 259 213 242 265 279 281 272 267 262 258
230 251 279 284 276 290 295 284 266 244 269 286 296 293 284 284 295 291 251 260 275 280 289 294 294 295 277 263 226 211 213 219 246 258 218 225 253 268 278 267 279 284 274